620  
ASUS45 KPSR 222210  
RWRAZ  
 
ARIZONA HOURLY REGIONAL WEATHER ROUNDUP  
NATIONAL WEATHER SERVICE PHOENIX AZ  
300 PM MST FRI FEB 22 2019  
 
NOTE: FAIR INDICATES FEW OR NO CLOUDS BELOW 12,000 FEET WITH NO  
SIGNIFICANT WEATHER AND/OR S TO VISIBILITY
.  
 
AZZ001>003-036-222300-  
NORTHWEST ARIZONA  
 
CITY SKY/WX TMP DP RH WIND PRES REMARKS
 
BULLHEAD CITY MOSUNNY 54 19 26 N21 29.94R  
KINGMAN SUNNY 38 24 57 CALM 29.89R  

 
 
AZZ004>008-015-016-018-222300-  
NORTH CENTRAL ARIZONA  
 
CITY SKY/WX TMP DP RH WIND PRES REMARKS
 
GRAND CANYON LGT SNOW 25 20 81 NW8 29.73 VSB 3/4 WCI 16  
WILLIAMS CLOUDY 21 19 93 NW15 29.72 WCI 8  
PRESCOTT CLOUDY 30 27 88 NW6 29.79R FOG WCI 24  
FLAGSTAFF CLOUDY 25 17 72 SW14 29.70R WCI 13  
PAYSON CLOUDY 30 27 86 W7 29.78 WCI 23  
PAGE FLURRIES 35 25 66 NW5 29.76R WCI 31  

 
 
AZZ009>014-017-222300-  
NORTHEAST ARIZONA  
 
CITY SKY/WX TMP DP RH WIND PRES REMARKS
 
WINSLOW CLOUDY 34 28 79 N3 29.74R  
SAINT JOHNS CLOUDY 33 22 63 S8 29.70S WCI 26  
WINDOW ROCK CLOUDY 29 22 75 SW12 29.69R WCI 19  
SHOW LOW CLOUDY 28 21 74 SW17G23 29.73R WCI 16  

 
 
AZZ540-542>544-546-548-222300-  
GREATER PHOENIX AREA  
 
CITY SKY/WX TMP DP RH WIND PRES REMARKS
 
PHOENIX PTSUNNY 46 41 82 NE8 29.86S  
BUCKEYE PTSUNNY 48 39 71 W10 29.92  
GLENDALE PTSUNNY 46 43 87 W9 29.90R  
LUKE AFB MOSUNNY 48 41 76 N5 29.86S  
DEER VALLEY PTSUNNY 45 36 70 S5 29.87S  
MESA-FALCON CLOUDY 44 39 82 E7 29.89R  
MESA-GATEWAY LGT RAIN 45 39 81 S6 29.89S  
CHANDLER PTSUNNY 45 41 87 CALM 29.88R  

 
 
AZZ539-553-222300-  
SOUTHWEST MARICOPA COUNTY AND PINAL COUNTY  
 
CITY SKY/WX TMP DP RH WIND PRES REMARKS
 
CASA GRANDE PTSUNNY 46 38 73 SW9 29.89S  
GILA BEND CLOUDY 46 41 81 NW10 29.92R HAZE  

 
 
AZZ503-504-507>509-222300-  
SOUTHEAST ARIZONA  
 
CITY SKY/WX TMP DP RH WIND PRES REMARKS
 
TUCSON CLOUDY 36 34 92 SE8 29.91S WCI 30  
DAVIS-MONTHAN CLOUDY 36 36 99 E6 29.89 WCI 31  
RYAN FIELD MOSUNNY 39 37 93 E10 29.91F WCI 32  
NOGALES CLOUDY 35 33 92 S5 29.86 WCI 31  
SIERRA VISTA FLURRIES 32 30 93 W16 29.82 WCI 21  
DOUGLAS SNOW 32 32 100 N7 29.83 VSB 1/2 WCI 26  
SAFFORD CLOUDY 42 32 67 NW16G22 29.81R  

 
 
AZZ532-222300-  
SOUTHWEST ARIZONA  
 
CITY SKY/WX TMP DP RH WIND PRES REMARKS
 
YUMA MOSUNNY 59 22 24 NW9G28 29.95S  

 
 
CAZ041-043-047-048-061-525>527-560>570-222300-  
SOUTHERN CALIFORNIA  
 
CITY SKY/WX TMP DP RH WIND PRES REMARKS
 
DOWNTOWN L.A. SUNNY 61 23 23 VRB3 29.99S  
L.A. AIRPORT MOSUNNY 59 26 28 W14 30.01S  
SAN DIEGO MOSUNNY 59 32 36 W13 30.05R  
BURBANK SUNNY 59 9 13 N15 29.97F  
ONTARIO MOSUNNY 61 26 26 VRB7 29.98S  
RIVERSIDE MOSUNNY 57 20 23 SW7 29.99S  
PALM SPRINGS SUNNY 62 25 24 E6 29.96R  
EL CENTRO NAS MOSUNNY 63 16 16 N15 29.98R  
IMPERIAL SUNNY 56 18 22 N16G22 29.96S  
BLYTHE SUNNY 58 25 28 NW16 29.95R  
NEEDLES SUNNY 56 24 29 N15G21 29.93S  

 
 
NVZ020-UTZ003-222300-  
SOUTHERN NEVADA-UTAH  
 
CITY SKY/WX TMP DP RH WIND PRES REMARKS
 
LAS VEGAS MOSUNNY 49 16 26 NW14G23 29.92R  
SALT LAKE CITY MOSUNNY 31 16 54 NW9G20 29.94R WCI 23  

 
 
NMZ009-TXZ055-222300-  
NEW MEXICO-WEST TEXAS  
 
CITY SKY/WX TMP DP RH WIND PRES REMARKS
 
ALBUQUERQUE PTSUNNY 52 21 29 S32G46 29.63F  
EL PASO PTSUNNY 68 19 15 SW21G38 29.62F  

 
 
   
.......................KEY.....................
 
 
SKY/WX - SKY CONDITION/WEATHER  
TMP - TEMPERATURE IN FAHRENHEIT  
DP - DEW POINT IN FAHRENHEIT  
RH - RELATIVE HUMIDITY IN PERCENT  
WIND - DIRECTION AND SPEED IN MILES PER HOUR (MPH)  
VRB - VARIABLE WIND DIRECTION  
PRES - MEAN SEA LEVEL PRESSURE IN INCHES OF MERCURY  
F - FALLING PRESSURE R - RISING PRESSURE  
S - STEADY PRESSURE  
VSB - VISIBILITY IN MILES  
HX - HEAT INDEX IN FAHRENHEIT  
WCI - WIND CHILL INDEX IN FAHRENHEIT  
TC - TEMPERATURE IN CELSIUS WHICH IS ALSO KNOWN AS  
TEMPERATURE IN CENTIGRADE  
AFB - AIR FORCE BASE  
LUKE AFB IS LUKE AIR FORCE BASE  
DAVIS-MONTHAN IS DAVIS-MONTHAN AIR FORCE BASE  
NAS - NAVAL AIR STATION  
EL CENTRO NAS IS EL CENTRO NAVAL AIR STATION  
N/A - NOT AVAILABLE  
 
 
 
CLICK HERE TO GO TO PREVIOUS BULLETINS.

The Nexlab AZ Page Main Text Page